DW8293 Hedemora SE current weather conditions

sailwx.info

Wind from 181 at 1 knots gusting 6

Air temperature 14.4° C
Dewpoint 9.9° C

Last reported at 2019-Jun-18 01:00 UTC.
Time now 2019-Jun-18 01:26 UTC

Location: N 60°16' E 015°60'.
View on Google Maps.

See reports from other nearby stations

  
Tides and Currents Weather Stations Pressure Air Temp Water Temp Dewpoint Dewpoint Depression Visibility Wind Speed Wind Dir Waves Ship Positions
date/time (UTC)wind fromknots sea level pressurealtimeterstation pressurevisibilityair tempwater tempwave heightnotes
2019-Jun-18 01:09 199 3 gusting 7 15.0
2019-Jun-18 01:00 181 1 gusting 6 14.4
2019-Jun-18 00:51 181 0 gusting 4 14.4
2019-Jun-18 00:42 181 1 gusting 1 14.4
2019-Jun-18 00:33 178 0 gusting 3 15.0
2019-Jun-18 00:24 182 15.0
2019-Jun-18 00:15 219 1 gusting 4 15.0
2019-Jun-18 00:06 223 2 gusting 4 15.0
2019-Jun-17 23:57 184 15.6
2019-Jun-17 23:48 173 15.6
2019-Jun-17 23:39 199 1 gusting 4 16.1
2019-Jun-17 23:30 235 1 gusting 5 16.1
2019-Jun-17 23:21 233 3 gusting 6 16.1
2019-Jun-17 23:12 230 1 gusting 6 16.1
2019-Jun-17 23:03 220 1 gusting 3 16.1
2019-Jun-17 22:54 240 0 gusting 5 16.7
2019-Jun-17 22:45 265 0 gusting 4 16.7
2019-Jun-17 22:36 270 0 gusting 5 16.7
2019-Jun-17 22:27 238 0 gusting 11 17.2
2019-Jun-17 22:18 216 6 gusting 11 17.2
2019-Jun-17 22:09 194 1 gusting 6 17.2
2019-Jun-17 22:00 212 3 gusting 11 17.2
2019-Jun-17 21:51 212 3 gusting 9 17.8
2019-Jun-17 21:42 181 2 gusting 7 17.8
2019-Jun-17 21:33 181 1 gusting 6 17.8
2019-Jun-17 21:24 208 1 gusting 12 17.8
2019-Jun-17 21:15 202 6 gusting 11 18.3
2019-Jun-17 21:06 212 4 gusting 9 18.3
2019-Jun-17 20:57 246 3 gusting 6 18.3
2019-Jun-17 20:48 204 0 gusting 6 18.3
2019-Jun-17 20:39 219 3 gusting 10 18.3
2019-Jun-17 20:30 223 5 gusting 12 18.9
2019-Jun-17 20:21 226 3 gusting 12 19.4
2019-Jun-17 20:12 222 4 gusting 13 19.4
2019-Jun-17 20:03 194 6 gusting 10 19.4
2019-Jun-17 19:54 210 2 gusting 13 20.0
2019-Jun-17 19:45 229 3 gusting 11 20.6
2019-Jun-17 19:36 226 4 gusting 13 21.1
2019-Jun-17 19:27 220 6 gusting 14 21.1
2019-Jun-17 19:18 224 2 gusting 14 21.7
2019-Jun-17 19:09 225 1 gusting 9 21.7
2019-Jun-17 19:00 222 4 gusting 13 22.2
2019-Jun-17 18:51 222 2 gusting 12 22.2
2019-Jun-17 18:42 231 6 gusting 13 22.2
2019-Jun-17 18:33 215 6 gusting 13 22.8
2019-Jun-17 18:24 229 4 gusting 12 22.8
2019-Jun-16 23:03 179 1 gusting 7 18.3
2019-Jun-16 22:54 190 4 gusting 7 18.9
2019-Jun-16 22:45 181 1 gusting 8 18.9
2019-Jun-16 22:36 183 2 gusting 6 19.4
2019-Jun-16 22:27 213 3 gusting 9 19.4
2019-Jun-16 22:18 197 3 gusting 8 19.4
2019-Jun-16 22:09 181 2 gusting 6 19.4
2019-Jun-16 22:00 207 1 gusting 5 20.0
2019-Jun-16 21:51 225 1 gusting 3 20.0
2019-Jun-16 21:42 225 20.0
2019-Jun-16 21:33 225 2 gusting 6 20.0
2019-Jun-16 21:24 225 3 gusting 5 20.0
2019-Jun-16 21:15 204 3 gusting 6 20.6
2019-Jun-16 21:06 226 2 gusting 7 20.6
2019-Jun-16 20:57 198 4 gusting 7 20.6
2019-Jun-16 20:48 176 1 gusting 7 21.1
2019-Jun-16 20:39 212 1 gusting 8 21.1
2019-Jun-16 20:30 194 4 gusting 10 21.1
2019-Jun-16 20:21 168 3 gusting 12 21.7
2019-Jun-16 20:12 182 3 gusting 12 21.7
2019-Jun-16 20:03 210 2 gusting 6 21.7
2019-Jun-16 19:54 237 1 gusting 9 22.2
2019-Jun-16 19:45 200 2 gusting 6 22.2
2019-Jun-16 19:36 181 3 gusting 7 22.2
2019-Jun-16 19:27 201 1 gusting 10 22.8
2019-Jun-16 19:18 223 9 gusting 10 22.8
2019-Jun-16 19:09 215 3 gusting 11 23.3
2019-Jun-16 19:00 199 3 gusting 13 23.3
2019-Jun-16 18:51 108 3 gusting 6 23.9
2019-Jun-16 18:42 105 1 gusting 3 23.9
2019-Jun-16 18:33 090 0 gusting 3 23.9
2019-Jun-16 18:24 090 0 gusting 3 23.9
2019-Jun-16 18:15 101 1 gusting 5 24.4
2019-Jun-16 18:06 135 1 gusting 3 24.4
2019-Jun-16 17:57 135 1 gusting 6 24.4
2019-Jun-16 17:48 135 3 gusting 6 24.4
2019-Jun-16 17:39 135 1 gusting 6 25.0
2019-Jun-16 17:30 135 3 gusting 6 25.0
2019-Jun-16 17:21 165 1 gusting 4 25.0
2019-Jun-16 17:12 181 1 gusting 4 25.0
2019-Jun-16 17:03 177 2 gusting 6 25.0
2019-Jun-16 16:54 147 3 gusting 7 25.0
2019-Jun-16 16:45 179 5 gusting 8 25.6
2019-Jun-16 16:36 142 3 gusting 8 25.6
2019-Jun-16 16:27 135 3 gusting 6 25.6
2019-Jun-16 16:18 191 2 gusting 8 25.6
2019-Jun-16 16:09 200 3 gusting 9 25.6
2019-Jun-16 16:00 163 5 gusting 9 25.6
2019-Jun-16 15:51 184 3 gusting 9 26.1
2019-Jun-16 15:42 173 2 gusting 7 26.1
2019-Jun-16 15:33 167 1 gusting 6 26.1
2019-Jun-16 15:24 198 2 gusting 6 26.7
2019-Jun-16 15:15 179 1 gusting 7 26.7
2019-Jun-16 15:06 168 2 gusting 10 26.7
2019-Jun-16 14:57 136 0 gusting 6 27.2
2019-Jun-16 14:48 135 1 gusting 7 26.7
2019-Jun-16 14:39 135 1 gusting 9 26.1
2019-Jun-16 14:30 202 1 gusting 11 26.7
2019-Jun-16 14:21 220 3 gusting 11 27.2
2019-Jun-16 14:12 212 3 gusting 11 27.2
2019-Jun-16 14:03 205 5 gusting 9 26.7
2019-Jun-16 13:54 173 5 gusting 10 26.7
2019-Jun-16 13:45 189 3 gusting 14 26.7
2019-Jun-16 13:36 147 5 gusting 13 26.7
2019-Jun-16 13:27 184 4 gusting 16 27.2
2019-Jun-16 13:18 187 5 gusting 14 28.3
2019-Jun-16 13:09 170 9 gusting 14 28.3
2019-Jun-16 13:00 152 2 gusting 10 27.8
2019-Jun-16 12:51 170 1 gusting 12 27.2
2019-Jun-16 12:42 143 5 gusting 12 28.3
2019-Jun-16 12:33 090 5 gusting 10 28.3
2019-Jun-16 12:24 134 5 gusting 13 27.8
2019-Jun-16 12:15 156 3 gusting 11 27.8
2019-Jun-16 12:06 145 3 gusting 11 27.8
2019-Jun-16 11:57 143 3 gusting 10 27.8
2019-Jun-16 11:48 145 5 gusting 10 27.8
2019-Jun-16 11:39 183 4 gusting 12 27.8
2019-Jun-16 11:30 167 1 gusting 11 27.8
2019-Jun-16 11:21 221 3 gusting 9 28.3
2019-Jun-16 11:12 200 2 gusting 6 27.8
2019-Jun-16 11:03 211 1 gusting 9 28.3
2019-Jun-16 10:54 184 6 gusting 12 27.8
2019-Jun-16 10:45 115 3 gusting 8 28.3
2019-Jun-16 10:36 161 0 gusting 6 28.3
2019-Jun-16 10:27 121 1 gusting 6 27.8
2019-Jun-16 10:18 121 1 gusting 7 28.9
2019-Jun-16 10:09 001 3 gusting 7 28.3
2019-Jun-16 10:00 001 1 gusting 6 27.2
2019-Jun-16 09:51 001 2 gusting 6 26.7
2019-Jun-16 09:42 349 1 gusting 7 26.1
2019-Jun-16 09:33 325 4 gusting 8 26.7
2019-Jun-16 09:24 314 5 gusting 8 26.1
2019-Jun-16 09:15 343 1 gusting 6 26.1
2019-Jun-16 09:06 001 3 gusting 6 25.6
2019-Jun-16 08:57 007 2 gusting 6 25.0
2019-Jun-16 08:48 087 1 gusting 7 24.4
2019-Jun-16 08:39 084 1 gusting 6 24.4
2019-Jun-16 08:30 044 3 gusting 5 24.4
2019-Jun-16 08:21 033 1 gusting 4 23.9
2019-Jun-16 08:12 043 2 gusting 6 23.3
2019-Jun-16 08:03 016 1 gusting 4 23.3
2019-Jun-16 07:54 028 0 gusting 3 23.3
2019-Jun-16 07:45 034 1 gusting 3 22.8
2019-Jun-16 07:36 036 1 gusting 4 22.2
2019-Jun-16 07:27 074 1 gusting 5 21.7
2019-Jun-16 07:18 064 3 gusting 5 22.2
2019-Jun-16 07:09 085 3 gusting 4 22.8
2019-Jun-16 07:00 051 1 gusting 2 22.8
2019-Jun-16 06:51 132 0 gusting 3 22.2
2019-Jun-16 06:42 053 1 gusting 3 20.6
2019-Jun-16 06:33 045 1 gusting 3 20.0
2019-Jun-16 06:24 045 0 gusting 4 20.6
2019-Jun-16 06:15 045 2 gusting 4 21.1
2019-Jun-16 06:06 046 1 gusting 3 20.6
2019-Jun-16 05:57 004 1 gusting 4 20.0
2019-Jun-16 05:48 001 1 gusting 4 19.4
2019-Jun-16 05:39 001 1 gusting 4 18.9
2019-Jun-16 05:30 001 1 gusting 3 18.9
2019-Jun-16 05:21 001 2 gusting 3 18.9
2019-Jun-16 05:12 001 1 gusting 3 18.3
2019-Jun-16 05:03 001 1 gusting 3 18.3
2019-Jun-16 04:54 001 1 gusting 3 18.3
2019-Jun-16 04:45 001 18.3
2019-Jun-16 04:36 001 0 gusting 2 18.3
2019-Jun-16 04:27 001 18.3
2019-Jun-16 04:18 001 0 gusting 1 18.3
2019-Jun-16 04:09 001 18.3
2019-Jun-16 04:00 001 17.8
2019-Jun-16 03:51 001 0 gusting 1 17.8
2019-Jun-16 03:42 001 17.8
2019-Jun-16 03:33 001 16.7
2019-Jun-16 03:24 001 16.7
2019-Jun-16 03:15 001 16.1
2019-Jun-16 03:06 001 15.6
2019-Jun-16 02:57 001 15.6
2019-Jun-16 02:48 001 0 gusting 1 15.6
2019-Jun-16 02:39 001 15.0
2019-Jun-16 02:30 001 14.4
2019-Jun-16 02:21 001 13.9
2019-Jun-16 02:12 13.3
2019-Jun-16 02:03 12.8
2019-Jun-16 01:54 001 12.8
2019-Jun-16 01:45 001 12.8
2019-Jun-16 01:36 001 12.8
2019-Jun-16 01:27 001 13.3
2019-Jun-16 01:18 001 13.3
2019-Jun-16 01:09 001 1 gusting 2 13.3
2019-Jun-16 01:00 001 1 gusting 2 13.3